Home > Weather > Vancouver > Past weeks

Flag for Canada Weather for the Past 2 Weeks in Vancouver, British Columbia, Canada

Now
63 °F

Passing clouds.


Feels Like: 63 °F
Forecast: 50 / 74 °F
Wind: 13 mph from Northwest

Location: Vancouver International Airport

Current Time: May 5, 2016 at 5:23:55 PM

Latest Report: May 5, 2016 at 5:00 PM


Visibility: 30 mi

Pressure: 30.00 "Hg

Humidity: 64%

Dew Point: 50 °F

Location of VancouverLocation

Historic Weather in Vancouver — Graph

°F

Vancouver Temperature Yesterday

Maximum temperature yesterday: 59 °F (at 3:00 PM)
Minimum temperature yesterday: 48 °F (at 11:00 PM)
Average temperature yesterday: 53 °F

High & Low Weather Summary for the Past Weeks

 TemperatureHumidityPressure
High75 °F (May 2, 5:00 PM)100% (Apr 22, 3:00 AM)30.38 "Hg (Apr 22, 3:00 AM)
Low45 °F (Apr 26, 5:00 AM)49% (May 2, 11:00 PM)29.59 "Hg (Apr 22, 6:00 AM)
Average56 °F76%30.01 "Hg
* Reported Apr 20 4:00 PM — May 5 4:00 PM, Vancouver, Weather by CustomWeather, © 2016

Note: Actual official high and low records may vary slightly from our data, if they occured in-between our weather recording intervals... More about our weather records

Advertising

Vancouver Weather History for the Previous 24 Hours

Scroll right to see more
 ConditionsComfort  
Time TempWeatherWind HumidityBarometerVisibility
4:00 PM
Thu, May 5
63 °FPassing clouds.14 mph64%30.02 "Hg30 mi
3:00 PM63 °FPassing clouds.16 mph64%30.03 "Hg30 mi
2:00 PM61 °FPassing clouds.16 mph68%30.05 "Hg30 mi
1:00 PM59 °FScattered clouds.20 mph72%30.05 "Hg30 mi
12:00 PM57 °FScattered clouds.21 mph72%30.06 "Hg30 mi
11:00 AM57 °FScattered clouds.21 mph72%30.06 "Hg30 mi
10:00 AM54 °FPartly sunny.21 mph77%30.06 "Hg30 mi
9:00 AM54 °FBroken clouds.21 mph77%30.06 "Hg30 mi
8:00 AM54 °FBroken clouds.18 mph77%30.05 "Hg30 mi
7:00 AM52 °FPartly sunny.17 mph82%30.05 "Hg30 mi
6:00 AM50 °FPassing clouds.16 mph88%30.04 "Hg20 mi
5:00 AM50 °FPassing clouds.16 mph88%30.03 "Hg20 mi
4:00 AM50 °FPassing clouds.16 mph88%30.02 "Hg20 mi
3:00 AM52 °FPassing clouds.17 mph82%30.02 "Hg20 mi
2:00 AM52 °FClear.20 mph82%30.01 "Hg20 mi
1:00 AM52 °FClear.15 mph82%30.01 "Hg20 mi
12:00 AM50 °FPassing clouds.9 mph88%30.01 "Hg30 mi
11:00 PM
Wed, May 4
48 °FPassing clouds.5 mph87%30.00 "Hg30 mi
10:00 PM50 °FPartly cloudy.3 mph76%30.00 "Hg30 mi
9:00 PM50 °FScattered clouds.8 mph82%29.99 "Hg30 mi
8:00 PM52 °FPartly sunny.7 mph77%29.99 "Hg30 mi
7:00 PM55 °FPassing clouds.9 mph72%29.98 "Hg30 mi
6:00 PM57 °FBroken clouds.8 mph67%30.00 "Hg30 mi
5:00 PM59 °FBroken clouds.12 mph59%30.02 "Hg30 mi
Weather by CustomWeather, © 2016

See weather overviewHow to use our weather pages